Location: Hungerford
(51.4167°N, 1.5167°W)
Time: 03:25:09
(UTC+00:00)

ARIANE 5 R/B - Pass Details

Date: 18 September 2020
Orbit: 620 x 657 km, 98.2° (Epoch: 09 October)

Event Time Altitude Azimuth Distance (km) Brightness Sun altitude
Exits shadow 21:15:16 58° 275° (W) 735 3.0 -26.7°
Drops below altitude 10° 21:19:19 10° 339° (NNW) 2,003 6.0 -27.2°
Sets 21:21:33 0° 343° (NNW) 2,913 6.9 -27.5°
